Time,TemperatureF,DewpointF,PressureIn,WindDirection,WindDirectionDegrees,WindSpeedMPH,WindSpeedGustMPH,Humidity,HourlyPrecipIn,Conditions,Clouds,dailyrainin,SoftwareType,DateUTC
2013-03-30 00:05:00,27.1,23.0,30.35,NNW,347,0.0,-999.0,83,-99.99,,,0.00,weatherlink.com 1.10,2013-03-30 06:05:00,
2013-03-30 00:20:00,27.3,23.0,30.35,NNW,346,0.0,-999.0,84,-99.99,,,0.00,weatherlink.com 1.10,2013-03-30 06:20:00,
2013-03-30 00:35:00,27.1,24.0,30.34,NNW,343,0.0,-999.0,86,-99.99,,,0.00,weatherlink.com 1.10,2013-03-30 06:35:00,
2013-03-30 00:50:00,26.7,23.0,30.34,NNW,343,0.0,-999.0,85,-99.99,,,0.00,weatherlink.com 1.10,2013-03-30 06:50:00,
2013-03-30 01:05:00,26.6,22.0,30.32,ESE,120,0.0,-999.0,84,-99.99,,,0.00,weatherlink.com 1.10,2013-03-30 07:05:00,
2013-03-30 01:20:00,27.0,21.0,30.31,ENE,67,0.0,-999.0,79,-99.99,,,0.00,weatherlink.com 1.10,2013-03-30 07:20:00,
2013-03-30 01:35:00,27.4,21.0,30.31,ENE,67,0.0,-999.0,76,-99.99,,,0.00,weatherlink.com 1.10,2013-03-30 07:35:00,
2013-03-30 01:50:00,27.7,20.0,30.30,ENE,67,0.0,-999.0,74,-99.99,,,0.00,weatherlink.com 1.10,2013-03-30 07:50:00,
2013-03-30 02:05:00,27.9,20.0,30.30,ESE,108,0.0,-999.0,73,-99.99,,,0.00,weatherlink.com 1.10,2013-03-30 08:05:00,
2013-03-30 02:20:00,27.9,21.0,30.31,ESE,109,0.0,-999.0,74,-99.99,,,0.00,weatherlink.com 1.10,2013-03-30 08:20:00,
2013-03-30 02:35:00,28.0,20.0,30.30,ENE,78,1.0,-999.0,73,-99.99,,,0.00,weatherlink.com 1.10,2013-03-30 08:35:00,
2013-03-30 02:50:00,28.1,20.0,30.28,West,260,2.0,-999.0,71,-99.99,,,0.00,weatherlink.com 1.10,2013-03-30 08:50:00,
2013-03-30 03:05:00,28.4,19.0,30.28,WSW,241,1.0,-999.0,69,-99.99,,,0.00,weatherlink.com 1.10,2013-03-30 09:05:00,
2013-03-30 03:20:00,28.5,19.0,30.28,ESE,119,0.0,-999.0,68,-99.99,,,0.00,weatherlink.com 1.10,2013-03-30 09:20:00,
2013-03-30 03:35:00,28.3,19.0,30.28,NNE,27,0.0,-999.0,68,-99.99,,,0.00,weatherlink.com 1.10,2013-03-30 09:35:00,
2013-03-30 03:50:00,28.3,19.0,30.28,NNE,22,0.0,-999.0,67,-99.99,,,0.00,weatherlink.com 1.10,2013-03-30 09:50:00,
2013-03-30 04:05:00,28.6,19.0,30.27,NE,51,0.0,-999.0,67,-99.99,,,0.00,weatherlink.com 1.10,2013-03-30 10:05:00,
2013-03-30 04:20:00,28.9,19.0,30.27,NNE,21,1.0,-999.0,67,-99.99,,,0.00,weatherlink.com 1.10,2013-03-30 10:20:00,
2013-03-30 04:35:00,29.4,19.0,30.26,South,169,2.0,-999.0,65,-99.99,,,0.00,weatherlink.com 1.10,2013-03-30 10:35:00,
2013-03-30 04:50:00,29.7,18.0,30.26,SW,222,1.0,-999.0,63,-99.99,,,0.00,weatherlink.com 1.10,2013-03-30 10:50:00,
2013-03-30 05:05:00,30.0,18.0,30.24,ESE,108,4.0,-999.0,62,-99.99,,,0.00,weatherlink.com 1.10,2013-03-30 11:05:00,
2013-03-30 05:20:00,30.1,18.0,30.25,ENE,71,0.0,-999.0,62,-99.99,,,0.00,weatherlink.com 1.10,2013-03-30 11:20:00,
2013-03-30 05:35:00,30.0,18.0,30.25,ENE,77,1.0,-999.0,62,-99.99,,,0.00,weatherlink.com 1.10,2013-03-30 11:35:00,
2013-03-30 05:50:00,29.9,18.0,30.24,SW,219,0.0,-999.0,61,-99.99,,,0.00,weatherlink.com 1.10,2013-03-30 11:50:00,
2013-03-30 06:05:00,29.9,18.0,30.23,NNW,344,2.0,-999.0,61,-99.99,,,0.00,weatherlink.com 1.10,2013-03-30 12:05:00,
2013-03-30 06:20:00,29.9,18.0,30.22,NE,55,4.0,-999.0,61,-99.99,,,0.00,weatherlink.com 1.10,2013-03-30 12:20:00,
2013-03-30 06:35:00,29.9,18.0,30.22,SW,217,0.0,-999.0,62,-99.99,,,0.00,weatherlink.com 1.10,2013-03-30 12:35:00,
2013-03-30 06:50:00,29.9,18.0,30.21,SW,227,0.0,-999.0,61,-99.99,,,0.00,weatherlink.com 1.10,2013-03-30 12:50:00,
2013-03-30 07:05:00,29.9,17.0,30.22,WNW,289,2.0,-999.0,60,-99.99,,,0.00,weatherlink.com 1.10,2013-03-30 13:05:00,
2013-03-30 07:20:00,29.9,18.0,30.22,SSW,211,4.0,-999.0,61,-99.99,,,0.00,weatherlink.com 1.10,2013-03-30 13:20:00,
2013-03-30 07:35:00,30.2,18.0,30.22,WSW,241,0.0,-999.0,60,-99.99,,,0.00,weatherlink.com 1.10,2013-03-30 13:35:00,
2013-03-30 07:50:00,30.8,18.0,30.23,ENE,61,0.0,-999.0,59,-99.99,,,0.00,weatherlink.com 1.10,2013-03-30 13:50:00,
2013-03-30 08:05:00,31.4,18.0,30.23,WSW,248,0.0,-999.0,58,-99.99,,,0.00,weatherlink.com 1.10,2013-03-30 14:05:00,
2013-03-30 08:20:00,31.0,18.0,30.23,NW,308,2.0,-999.0,59,-99.99,,,0.00,weatherlink.com 1.10,2013-03-30 14:20:00,
2013-03-30 08:35:00,31.4,18.0,30.24,West,271,0.0,-999.0,58,-99.99,,,0.00,weatherlink.com 1.10,2013-03-30 14:35:00,
2013-03-30 08:50:00,32.4,19.0,30.23,South,189,0.0,-999.0,58,-99.99,,,0.00,weatherlink.com 1.10,2013-03-30 14:50:00,
2013-03-30 09:05:00,33.6,18.0,30.23,NE,47,2.0,-999.0,54,-99.99,,,0.00,weatherlink.com 1.10,2013-03-30 15:05:00,
2013-03-30 09:20:00,34.7,19.0,30.23,WSW,247,5.0,-999.0,53,-99.99,,,0.00,weatherlink.com 1.10,2013-03-30 15:20:00,
2013-03-30 09:35:00,34.2,18.0,30.23,ESE,107,0.0,-999.0,52,-99.99,,,0.00,weatherlink.com 1.10,2013-03-30 15:35:00,
2013-03-30 09:50:00,33.9,18.0,30.23,NE,53,0.0,-999.0,53,-99.99,,,0.00,weatherlink.com 1.10,2013-03-30 15:50:00,
2013-03-30 10:05:00,35.1,18.0,30.23,South,180,4.0,-999.0,50,-99.99,,,0.00,weatherlink.com 1.10,2013-03-30 16:05:00,
2013-03-30 10:20:00,36.1,17.0,30.22,East,90,0.0,-999.0,47,-99.99,,,0.00,weatherlink.com 1.10,2013-03-30 16:20:00,
2013-03-30 10:35:00,36.1,18.0,30.22,ESE,115,0.0,-999.0,48,-99.99,,,0.00,weatherlink.com 1.10,2013-03-30 16:35:00,
2013-03-30 10:50:00,36.1,17.0,30.21,NE,49,4.0,-999.0,47,-99.99,,,0.00,weatherlink.com 1.10,2013-03-30 16:50:00,
2013-03-30 11:05:00,36.0,19.0,30.22,SSW,201,2.0,-999.0,50,-99.99,,,0.00,weatherlink.com 1.10,2013-03-30 17:05:00,
2013-03-30 11:20:00,36.2,19.0,30.22,ENE,64,4.0,-999.0,50,-99.99,,,0.00,weatherlink.com 1.10,2013-03-30 17:20:00,
2013-03-30 11:35:00,37.6,19.0,30.22,SSW,212,0.0,-999.0,47,-99.99,,,0.00,weatherlink.com 1.10,2013-03-30 17:35:00,
2013-03-30 11:50:00,40.1,19.0,30.21,ENE,69,0.0,-999.0,42,-99.99,,,0.00,weatherlink.com 1.10,2013-03-30 17:50:00,
2013-03-30 12:05:00,41.4,19.0,30.21,NE,34,11.0,-999.0,41,-99.99,,,0.00,weatherlink.com 1.10,2013-03-30 18:05:00,
2013-03-30 12:20:00,41.5,17.0,30.20,East,98,3.0,-999.0,37,-99.99,,,0.00,weatherlink.com 1.10,2013-03-30 18:20:00,
2013-03-30 12:35:00,41.6,18.0,30.19,South,174,3.0,-999.0,38,-99.99,,,0.00,weatherlink.com 1.10,2013-03-30 18:35:00,
2013-03-30 12:50:00,41.8,18.0,30.19,ESE,116,4.0,-999.0,38,-99.99,,,0.00,weatherlink.com 1.10,2013-03-30 18:50:00,
2013-03-30 13:05:00,41.8,18.0,30.18,ENE,64,3.0,-999.0,38,-99.99,,,0.00,weatherlink.com 1.10,2013-03-30 19:05:00,
2013-03-30 13:20:00,41.3,17.0,30.18,ESE,109,4.0,-999.0,38,-99.99,,,0.00,weatherlink.com 1.10,2013-03-30 19:20:00,
2013-03-30 13:35:00,41.3,17.0,30.17,North,11,6.0,-999.0,38,-99.99,,,0.00,weatherlink.com 1.10,2013-03-30 19:35:00,
2013-03-30 13:50:00,41.6,16.0,30.17,ESE,107,5.0,-999.0,36,-99.99,,,0.00,weatherlink.com 1.10,2013-03-30 19:50:00,
2013-03-30 14:05:00,43.0,17.0,30.15,South,182,0.0,-999.0,35,-99.99,,,0.00,weatherlink.com 1.10,2013-03-30 20:05:00,
2013-03-30 14:20:00,43.4,16.0,30.16,SSW,207,1.0,-999.0,33,-99.99,,,0.00,weatherlink.com 1.10,2013-03-30 20:20:00,
2013-03-30 14:35:00,43.2,15.0,30.16,East,82,2.0,-999.0,32,-99.99,,,0.00,weatherlink.com 1.10,2013-03-30 20:35:00,
2013-03-30 14:50:00,43.0,16.0,30.16,ESE,117,5.0,-999.0,33,-99.99,,,0.00,weatherlink.com 1.10,2013-03-30 20:50:00,
2013-03-30 15:05:00,42.3,16.0,30.16,SSW,207,3.0,-999.0,35,-99.99,,,0.00,weatherlink.com 1.10,2013-03-30 21:05:00,
2013-03-30 15:20:00,42.2,16.0,30.15,SSW,211,4.0,-999.0,35,-99.99,,,0.00,weatherlink.com 1.10,2013-03-30 21:20:00,
2013-03-30 15:35:00,41.4,18.0,30.16,SSW,205,0.0,-999.0,39,-99.99,,,0.00,weatherlink.com 1.10,2013-03-30 21:35:00,
2013-03-30 15:50:00,40.9,19.0,30.16,SSW,206,1.0,-999.0,42,-99.99,,,0.00,weatherlink.com 1.10,2013-03-30 21:50:00,
2013-03-30 16:05:00,40.1,19.0,30.14,North,5,1.0,-999.0,43,-99.99,,,0.00,weatherlink.com 1.10,2013-03-30 22:05:00,
2013-03-30 16:20:00,39.9,18.0,30.14,SW,220,4.0,-999.0,42,-99.99,,,0.00,weatherlink.com 1.10,2013-03-30 22:20:00,
2013-03-30 16:35:00,40.4,18.0,30.14,South,188,3.0,-999.0,40,-99.99,,,0.00,weatherlink.com 1.10,2013-03-30 22:35:00,
2013-03-30 16:50:00,39.9,18.0,30.14,East,94,0.0,-999.0,41,-99.99,,,0.00,weatherlink.com 1.10,2013-03-30 22:50:00,
2013-03-30 17:05:00,39.5,17.0,30.14,East,86,1.0,-999.0,40,-99.99,,,0.00,weatherlink.com 1.10,2013-03-30 23:05:00,
2013-03-30 17:20:00,40.0,17.0,30.13,East,101,2.0,-999.0,40,-99.99,,,0.00,weatherlink.com 1.10,2013-03-30 23:20:00,
2013-03-30 17:35:00,39.6,17.0,30.13,ESE,108,4.0,-999.0,40,-99.99,,,0.00,weatherlink.com 1.10,2013-03-30 23:35:00,
2013-03-30 17:50:00,37.8,16.0,30.14,SSE,148,1.0,-999.0,41,-99.99,,,0.00,weatherlink.com 1.10,2013-03-30 23:50:00,
2013-03-30 18:05:00,37.5,17.0,30.15,ENE,62,2.0,-999.0,44,-99.99,,,0.00,weatherlink.com 1.10,2013-03-31 00:05:00,
2013-03-30 18:20:00,36.9,16.0,30.14,East,88,1.0,-999.0,42,-99.99,,,0.00,weatherlink.com 1.10,2013-03-31 00:20:00,
2013-03-30 18:35:00,36.0,15.0,30.14,SE,134,2.0,-999.0,43,-99.99,,,0.00,weatherlink.com 1.10,2013-03-31 00:35:00,
2013-03-30 18:50:00,35.3,15.0,30.16,ESE,120,0.0,-999.0,44,-99.99,,,0.00,weatherlink.com 1.10,2013-03-31 00:50:00,
2013-03-30 19:05:00,34.5,19.0,30.16,East,82,3.0,-999.0,53,-99.99,,,0.00,weatherlink.com 1.10,2013-03-31 01:05:00,
2013-03-30 19:20:00,33.3,19.0,30.17,East,91,3.0,-999.0,56,-99.99,,,0.00,weatherlink.com 1.10,2013-03-31 01:20:00,
2013-03-30 19:35:00,32.3,19.0,30.18,ENE,59,0.0,-999.0,58,-99.99,,,0.00,weatherlink.com 1.10,2013-03-31 01:35:00,
2013-03-30 19:50:00,31.6,19.0,30.19,NE,43,0.0,-999.0,59,-99.99,,,0.00,weatherlink.com 1.10,2013-03-31 01:50:00,
2013-03-30 20:05:00,31.3,20.0,30.20,WSW,244,0.0,-999.0,64,-99.99,,,0.00,weatherlink.com 1.10,2013-03-31 02:05:00,
2013-03-30 20:20:00,30.6,22.0,30.21,SW,224,0.0,-999.0,70,-99.99,,,0.00,weatherlink.com 1.10,2013-03-31 02:20:00,
2013-03-30 20:35:00,29.6,24.0,30.22,SSW,206,0.0,-999.0,80,-99.99,,,0.00,weatherlink.com 1.10,2013-03-31 02:35:00,
2013-03-30 20:50:00,28.6,24.0,30.22,SSW,206,0.0,-999.0,82,-99.99,,,0.00,weatherlink.com 1.10,2013-03-31 02:50:00,
2013-03-30 21:05:00,28.1,24.0,30.24,SSW,206,0.0,-999.0,83,-99.99,,,0.00,weatherlink.com 1.10,2013-03-31 03:05:00,
2013-03-30 21:20:00,27.4,24.0,30.24,SW,236,0.0,-999.0,85,-99.99,,,0.00,weatherlink.com 1.10,2013-03-31 03:20:00,
2013-03-30 21:35:00,26.9,23.0,30.24,SW,225,0.0,-999.0,86,-99.99,,,0.00,weatherlink.com 1.10,2013-03-31 03:35:00,
2013-03-30 21:50:00,26.6,23.0,30.23,SW,225,0.0,-999.0,86,-99.99,,,0.00,weatherlink.com 1.10,2013-03-31 03:50:00,
2013-03-30 22:05:00,26.1,22.0,30.23,SW,225,0.0,-999.0,85,-99.99,,,0.00,weatherlink.com 1.10,2013-03-31 04:05:00,
2013-03-30 22:20:00,25.5,22.0,30.22,SW,225,0.0,-999.0,85,-99.99,,,0.00,weatherlink.com 1.10,2013-03-31 04:20:00,
2013-03-30 22:35:00,24.9,20.0,30.22,SW,225,0.0,-999.0,82,-99.99,,,0.00,weatherlink.com 1.10,2013-03-31 04:35:00,
2013-03-30 22:50:00,24.4,20.0,30.21,SW,227,0.0,-999.0,83,-99.99,,,0.00,weatherlink.com 1.10,2013-03-31 04:50:00,
2013-03-30 23:05:00,24.1,19.0,30.22,SW,227,0.0,-999.0,81,-99.99,,,0.00,weatherlink.com 1.10,2013-03-31 05:05:00,
2013-03-30 23:20:00,23.7,19.0,30.22,SW,227,0.0,-999.0,81,-99.99,,,0.00,weatherlink.com 1.10,2013-03-31 05:20:00,
2013-03-30 23:35:00,23.4,18.0,30.21,SW,227,0.0,-999.0,80,-99.99,,,0.00,weatherlink.com 1.10,2013-03-31 05:35:00,
2013-03-30 23:50:00,22.9,17.0,30.22,SW,227,0.0,-999.0,79,-99.99,,,0.00,weatherlink.com 1.10,2013-03-31 05:50:00,